Weather History for Clearfield, PA

Change the Weather History Date:

Saturday, January 5, 2013

  Actual Average (KDUJ) Record (KDUJ)
Temperature  
Mean Temperature 26 °F 24 °F  
Max Temperature 28 °F 31 °F 60 °F (1993)
Min Temperature 23 °F 17 °F -3 °F (1981)
Degree Days  
Heating Degree Days 40 41  
Month to date heating degree days 205  
Since 1 July heating degree days 2867  
Cooling Degree Days 0 0  
Month to date cooling degree days 0  
Year to date cooling degree days 0  
Moisture  
Dew Point 19 °F    
Average Humidity 77    
Maximum Humidity 85    
Minimum Humidity 69    
Precipitation  
Precipitation 0.00 in 0.10 in 1.35 in (2007)
Month to date precipitation 0.53  
Sea Level Pressure  
Sea Level Pressure 30.27 in    
Wind  
Wind Speed 9 mph (West)    
Max Wind Speed 15 mph    
Max Gust Speed 26 mph    
Visibility 9 miles    
Events      
T = Trace of Precipitation, MM = Missing Value Source: NWS Daily Summary

Daily Weather History Graph

Daily Weather History Graph

Search for Another Location

Airport:

Trip Planner

Search our weather history database for the weather conditions in past years. The results will help you decide how hot, cold, wet, or windy it might be!

Date:

Astronomy

Jan. 05, 2013 Rise Set
Actual Time 7:38 AM EST 4:59 PM EST
Civil Twilight 7:08 AM EST 5:30 PM EST
Nautical Twilight 6:33 AM EST 6:05 PM EST
Astronomical Twilight 6:00 AM EST 6:38 PM EST
Moon 12:41 AM EST (1/5) 11:50 AM EST (1/5)
Length of Visible Light 10h 22m
Length of Day
9h 21m
Last Quarter, 44% of the Moon is Illuminated
Jan 5
Last Quarter
Jan 11
New
Jan 18
First Quarter
Jan 26
Full
Feb 3
Last Quarter

Hourly Weather History & Observations

Time (EST) Temp. Windchill Dew Point Humidity Pressure Visibility Wind Dir Wind Speed Gust Speed Precip Events Conditions
12:54 AM 25.0 °F 12.6 °F 16.0 °F 69% 30.18 in 10.0 mi West 15.0 mph 26.5 mph N/A   Overcast
1:54 AM 25.0 °F 13.1 °F 16.0 °F 69% 30.19 in 10.0 mi West 13.8 mph 26.5 mph N/A   Overcast
2:54 AM 24.1 °F 11.5 °F 17.1 °F 75% 30.22 in 10.0 mi West 15.0 mph 24.2 mph N/A   Overcast
3:54 AM 24.1 °F 13.1 °F 18.0 °F 77% 30.24 in 10.0 mi West 11.5 mph 21.9 mph N/A   Overcast
4:54 AM 25.0 °F 15.5 °F 19.0 °F 78% 30.26 in 10.0 mi West 9.2 mph 20.7 mph N/A   Overcast
5:54 AM 25.0 °F 12.6 °F 19.0 °F 78% 30.29 in 10.0 mi West 15.0 mph 20.7 mph N/A   Overcast
6:54 AM 24.1 °F 13.7 °F 19.0 °F 81% 30.31 in 10.0 mi West 10.4 mph 18.4 mph N/A   Overcast
7:54 AM 24.1 °F 13.1 °F 19.0 °F 81% 30.33 in 10.0 mi West 11.5 mph - N/A   Overcast
8:54 AM 24.1 °F 16.0 °F 19.0 °F 81% 30.38 in 7.0 mi West 6.9 mph - N/A   Overcast
9:54 AM 25.0 °F 18.1 °F 19.0 °F 78% 30.40 in 5.0 mi SW 5.8 mph - N/A   Haze
10:08 AM 24.8 °F 17.9 °F 19.4 °F 80% 30.33 in 5.0 mi WSW 5.8 mph - N/A   Haze
10:54 AM 25.0 °F 18.1 °F 19.9 °F 81% 30.39 in 9.0 mi SW 5.8 mph - 0.00 in   Overcast
11:54 AM 26.1 °F 18.4 °F 19.0 °F 75% 30.35 in 10.0 mi West 6.9 mph - N/A   Overcast
12:54 PM 27.0 °F 19.5 °F 19.9 °F 75% 30.32 in 10.0 mi SW 6.9 mph - N/A   Overcast
1:54 PM 28.0 °F 20.8 °F 19.9 °F 72% 30.29 in 10.0 mi WSW 6.9 mph - N/A   Overcast
2:54 PM 28.0 °F 21.7 °F 19.9 °F 72% 30.29 in 10.0 mi WSW 5.8 mph - N/A   Overcast
3:41 PM 28.4 °F - 21.2 °F 74% 30.21 in 10.0 mi Calm Calm - N/A   Scattered Clouds
3:54 PM 28.0 °F 24.2 °F 19.9 °F 72% 30.28 in 10.0 mi SW 3.5 mph - N/A   Partly Cloudy
4:54 PM 28.0 °F - 19.9 °F 72% 30.27 in 10.0 mi Calm Calm - N/A   Clear
5:54 PM 26.1 °F - 19.0 °F 75% 30.25 in 10.0 mi Calm Calm - N/A   Clear
6:54 PM 26.1 °F - 19.0 °F 75% 30.24 in 10.0 mi Calm Calm - N/A   Clear
7:54 PM 23.0 °F 18.4 °F 19.0 °F 85% 30.24 in 10.0 mi North 3.5 mph - N/A   Scattered Clouds
8:54 PM 23.0 °F - 19.0 °F 85% 30.22 in 10.0 mi Calm Calm - N/A   Mostly Cloudy
9:54 PM 23.0 °F 17.0 °F 19.0 °F 85% 30.21 in 10.0 mi NNW 4.6 mph - N/A   Mostly Cloudy
10:54 PM 24.1 °F - 19.9 °F 84% 30.20 in 8.0 mi Calm Calm - N/A   Overcast
11:54 PM 24.1 °F - 19.9 °F 84% 30.17 in 9.0 mi Calm Calm - 0.00 in   Overcast